| time (UTC) | temp F | wind direction | speed MPH | gust MPH | rain 1hr in | rain 24hr in | rain mn in | humidity % | barometer mb |
| 20260906055306 | 62 | 277 | 1.0 | 5.0 | 0.00 | 0.01 | 0.01 | 25 | 1012.5 |
| 20260906053804 | 62 | 287 | 1.0 | 2.0 | 0.00 | 0.01 | 0.01 | 38 | 1012.6 |
| 20260906050805 | 62 | 275 | 2.0 | 9.0 | 0.00 | 0.01 | 0.01 | 50 | 1012.8 |
| 20260906045306 | 62 | 285 | 4.0 | 13.0 | 0.00 | 0.01 | 0.01 | 58 | 1012.8 |
| 20260906044804 | 63 | 275 | 6.0 | 12.0 | 0.00 | 0.01 | 0.01 | 60 | 1012.8 |
| 20260906043805 | 63 | 284 | 5.0 | 10.0 | 0.00 | 0.01 | 0.01 | 61 | 1012.9 |
| 20260906041304 | 63 | 274 | 4.0 | 13.0 | 0.00 | 0.01 | 0.01 | 59 | 1013.4 |
| 20260906040804 | 63 | 276 | 5.0 | 12.0 | 0.00 | 0.01 | 0.01 | 60 | 1013.4 |
| 20260906035306 | 62 | 261 | 9.0 | 14.0 | 0.00 | 0.01 | 0.01 | 62 | 1013.9 |
| 20260906034804 | 62 | 261 | 9.0 | 18.0 | 0.00 | 0.01 | 0.01 | 62 | 1013.9 |
| 20260906034305 | 63 | 271 | 10.0 | 16.0 | 0.00 | 0.01 | 0.01 | 63 | 1014.0 |
| 20260906033305 | 63 | 264 | 9.0 | 20.0 | 0.00 | 0.01 | 0.01 | 62 | 1014.1 |
| 20260906030804 | 62 | 261 | 13.0 | 20.0 | 0.00 | 0.01 | 0.01 | 59 | 1014.5 |
| 20260906025805 | 62 | 275 | 7.0 | 14.0 | 0.00 | 0.01 | 0.01 | 56 | 1014.6 |
| 20260906025306 | 62 | 258 | 11.0 | 20.0 | 0.00 | 0.01 | 0.01 | 56 | 1014.8 |
| 20260906024305 | 62 | 257 | 11.0 | 18.0 | 0.00 | 0.01 | 0.01 | 52 | 1014.9 |
| 20260906023805 | 63 | 263 | 10.0 | 17.0 | 0.00 | 0.01 | 0.01 | 51 | 1014.9 |
| 20260906022805 | 63 | 249 | 10.0 | 17.0 | 0.00 | 0.01 | 0.01 | 44 | 1014.8 |
| 20260906020305 | 62 | 249 | 10.0 | 20.0 | 0.00 | 0.01 | 0.01 | 47 | 1015.1 |
| 20260906015805 | 62 | 245 | 7.0 | 14.0 | 0.00 | 0.01 | 0.01 | 52 | 1015.1 |
| 20260906015306 | 62 | 279 | 7.0 | 17.0 | 0.00 | 0.01 | 0.01 | 54 | 1015.1 |
| 20260906014804 | 62 | 243 | 10.0 | 16.0 | 0.00 | 0.01 | 0.01 | 55 | 1015.2 |
| 20260906014305 | 62 | 280 | 8.0 | 16.0 | 0.00 | 0.01 | 0.01 | 57 | 1015.2 |
| 20260906013306 | 62 | 288 | 2.0 | 7.0 | 0.00 | 0.01 | 0.01 | 40 | 1015.2 |
| 20260906011805 | 61 | 278 | 6.0 | 12.0 | 0.00 | 0.01 | 0.01 | 52 | 1015.6 |
| 20260906011306 | 61 | 258 | 6.0 | 12.0 | 0.00 | 0.01 | 0.01 | 53 | 1015.7 |
| 20260906010304 | 61 | 285 | 5.0 | 12.0 | 0.00 | 0.01 | 0.01 | 58 | 1015.9 |
| 20260906004804 | 61 | 259 | 5.0 | 10.0 | 0.00 | 0.01 | 0.01 | 55 | 1016.3 |
| 20260906003804 | 61 | 282 | 3.0 | 12.0 | 0.00 | 0.01 | 0.01 | 51 | 1016.5 |
| 20260906002805 | 61 | 304 | 2.0 | 9.0 | 0.00 | 0.01 | 0.01 | 47 | 1016.7 |
| 20260906001804 | 61 | 277 | 4.0 | 12.0 | 0.00 | 0.01 | 0.01 | 36 | 1016.8 |
| 20260906001304 | 61 | 273 | 3.0 | 8.0 | 0.00 | 0.01 | 0.01 | 40 | 1017.0 |
| 20260906000805 | 61 | 280 | 4.0 | 12.0 | 0.00 | 0.01 | 0.01 | 33 | 1017.0 |
| 20260905235805 | 61 | 307 | 2.0 | 7.0 | 0.01 | 0.01 | 0.01 | 17 | 1017.2 |
| 20260905234304 | 61 | 281 | 3.0 | 7.0 | 0.01 | 0.01 | 0.01 | 8 | 1017.6 |
| 20260905233805 | 62 | 290 | 2.0 | 3.0 | 0.01 | 0.01 | 0.01 | 4 | 1017.6 |
| 20260905232306 | 61 | 283 | 0.0 | 3.0 | 0.01 | 0.01 | 0.01 | 4 | 1017.9 |
| 20260905231804 | 61 | 290 | 3.0 | 6.0 | 0.01 | 0.01 | 0.01 | 4 | 1018.0 |
| 20260905231305 | 61 | 288 | 1.0 | 5.0 | 0.01 | 0.01 | 0.01 | 4 | 1018.0 |
| 20260905230307 | 61 | 277 | 2.0 | 7.0 | 0.00 | 0.00 | 0.00 | 5 | 1018.3 |
| 20260905223804 | 61 | 278 | 3.0 | 12.0 | 0.00 | 0.00 | 0.00 | 4 | 1018.7 |
| 20260905222805 | 60 | 281 | 4.0 | 10.0 | 0.00 | 0.00 | 0.00 | 4 | 1018.7 |
| 20260905222306 | 59 | 281 | 3.0 | 7.0 | 0.00 | 0.00 | 0.00 | 4 | 1018.7 |
| 20260905221804 | 58 | 288 | 2.0 | 5.0 | 0.00 | 0.00 | 0.00 | 4 | 1018.8 |
| 20260905220805 | 57 | 265 | 4.0 | 10.0 | 0.00 | 0.00 | 0.00 | 4 | 1019.0 |
| 20260905220305 | 57 | 274 | 4.0 | 7.0 | 0.00 | 0.00 | 0.00 | 4 | 1019.2 |
| 20260905215805 | 56 | 275 | 5.0 | 12.0 | 0.00 | 0.00 | 0.00 | 4 | 1019.3 |
| 20260905213305 | 55 | 267 | 4.0 | 7.0 | 0.00 | 0.00 | 0.00 | 4 | 1019.7 |
| 20260905212804 | 55 | 297 | 2.0 | 6.0 | 0.00 | 0.00 | 0.00 | 4 | 1019.7 |
| 20260905211305 | 54 | 268 | 5.0 | 8.0 | 0.00 | 0.00 | 0.00 | 4 | 1019.8 |
| 20260905210305 | 54 | 274 | 2.0 | 5.0 | 0.00 | 0.00 | 0.00 | 4 | 1019.8 |
| 20260905205804 | 54 | 291 | 4.0 | 7.0 | 0.00 | 0.00 | 0.00 | 4 | 1019.8 |
| 20260905204804 | 53 | 290 | 2.0 | 6.0 | 0.00 | 0.00 | 0.00 | 4 | 1019.7 |
| 20260905204305 | 53 | 273 | 2.0 | 5.0 | 0.00 | 0.00 | 0.00 | 4 | 1019.7 |
| 20260905203806 | 53 | 275 | 3.0 | 6.0 | 0.00 | 0.00 | 0.00 | 4 | 1019.7 |
| 20260905202806 | 53 | 271 | 3.0 | 6.0 | 0.00 | 0.00 | 0.00 | 4 | 1019.8 |
| 20260905202306 | 53 | 283 | 2.0 | 5.0 | 0.00 | 0.00 | 0.00 | 4 | 1019.8 |
| 20260905195306 | 51 | 302 | 0.0 | 5.0 | 0.00 | 0.00 | 0.00 | 4 | 1019.7 |
| 20260905193804 | 51 | 291 | 1.0 | 3.0 | 0.00 | 0.00 | 0.00 | 4 | 1019.7 |
| 20260905193305 | 51 | 278 | 2.0 | 3.0 | 0.00 | 0.00 | 0.00 | 4 | 1019.7 |
| 20260905192804 | 51 | 282 | 1.0 | 3.0 | 0.00 | 0.00 | 0.00 | 4 | 1019.6 |
| 20260905191805 | 50 | 275 | 3.0 | 5.0 | 0.00 | 0.00 | 0.00 | 4 | 1019.6 |
| 20260905185804 | 49 | 300 | 0.0 | 1.0 | 0.00 | 0.00 | 0.00 | 4 | 1019.3 |
| 20260905185306 | 49 | 301 | 0.0 | 1.0 | 0.00 | 0.00 | 0.00 | 4 | 1019.4 |
| 20260905183805 | 49 | 286 | 0.0 | 1.0 | 0.00 | 0.00 | 0.00 | 4 | 1019.2 |
| 20260905181804 | 49 | 303 | 0.0 | 0.0 | 0.00 | 0.00 | 0.00 | 4 | 1018.9 |
| 20260905181305 | 49 | 301 | 0.0 | 0.0 | 0.00 | 0.00 | 0.00 | 4 | 1018.9 |
| 20260905180804 | 50 | 289 | 0.0 | 1.0 | 0.00 | 0.00 | 0.00 | 4 | 1019.0 |
| 20260905175306 | 49 | 283 | 1.0 | 1.0 | 0.00 | 0.00 | 0.00 | 4 | 1019.0 |
| 20260905173305 | 49 | 303 | 0.0 | 1.0 | 0.00 | 0.00 | 0.00 | 4 | 1019.1 |
| 20260905172305 | 50 | 298 | 0.0 | 2.0 | 0.00 | 0.00 | 0.00 | 4 | 1019.1 |
| 20260905171805 | 50 | 297 | 0.0 | 2.0 | 0.00 | 0.00 | 0.00 | 4 | 1019.2 |
| 20260905170807 | 50 | 277 | 1.0 | 2.0 | 0.00 | 0.00 | 0.00 | 4 | 1019.1 |
| 20260905170306 | 50 | 277 | 1.0 | 2.0 | 0.00 | 0.00 | 0.00 | 4 | 1019.0 |
| 20260905165306 | 50 | 279 | 0.0 | 1.0 | 0.00 | 0.00 | 0.00 | 4 | 1019.0 |
| 20260905164805 | 50 | 280 | 0.0 | 1.0 | 0.00 | 0.00 | 0.00 | 4 | 1018.9 |
| 20260905164305 | 50 | 279 | 0.0 | 0.0 | 0.00 | 0.00 | 0.00 | 4 | 1018.8 |
| 20260905163805 | 50 | 279 | 0.0 | 1.0 | 0.00 | 0.00 | 0.00 | 4 | 1018.8 |
| 20260905163306 | 50 | 279 | 0.0 | 1.0 | 0.00 | 0.00 | 0.00 | 4 | 1018.8 |
| 20260905162804 | 51 | 277 | 0.0 | 0.0 | 0.00 | 0.00 | 0.00 | 4 | 1018.8 |
| 20260905162306 | 51 | 277 | 0.0 | 0.0 | 0.00 | 0.00 | 0.00 | 4 | 1018.7 |
| 20260905160305 | 52 | 279 | 0.0 | 0.0 | 0.00 | 0.00 | 0.00 | 4 | 1018.6 |
| 20260905155307 | 53 | 286 | 0.0 | 1.0 | 0.00 | 0.00 | 0.00 | 4 | 1018.6 |
| 20260905154305 | 53 | 283 | 0.0 | 1.0 | 0.00 | 0.00 | 0.00 | 4 | 1018.6 |
| 20260905153804 | 53 | 283 | 1.0 | 3.0 | 0.00 | 0.00 | 0.00 | 4 | 1018.5 |
| 20260905152804 | 53 | 275 | 2.0 | 3.0 | 0.00 | 0.00 | 0.00 | 4 | 1018.7 |
| 20260905151805 | 52 | 279 | 1.0 | 3.0 | 0.00 | 0.00 | 0.00 | 4 | 1018.9 |
| 20260905151306 | 52 | 286 | 2.0 | 3.0 | 0.00 | 0.00 | 0.00 | 4 | 1018.9 |
| 20260905150804 | 52 | 278 | 2.0 | 3.0 | 0.00 | 0.00 | 0.00 | 4 | 1018.9 |
| 20260905150304 | 51 | 280 | 0.0 | 1.0 | 0.00 | 0.00 | 0.00 | 4 | 1019.0 |
| 20260905145804 | 51 | 280 | 0.0 | 1.0 | 0.00 | 0.00 | 0.00 | 4 | 1019.1 |
| 20260905145306 | 51 | 282 | 0.0 | 0.0 | 0.00 | 0.00 | 0.00 | 4 | 1019.2 |
| 20260905144804 | 51 | 277 | 0.0 | 1.0 | 0.00 | 0.00 | 0.00 | 4 | 1019.2 |
| 20260905144306 | 50 | 277 | 0.0 | 1.0 | 0.00 | 0.00 | 0.00 | 4 | 1019.4 |
| 20260905143305 | 50 | 238 | 0.0 | 0.0 | 0.00 | 0.00 | 0.00 | 4 | 1019.6 |
| 20260905142805 | 50 | 238 | 0.0 | 1.0 | 0.00 | 0.00 | 0.00 | 4 | 1019.8 |
| 20260905142306 | 49 | 238 | 0.0 | 0.0 | 0.00 | 0.00 | 0.00 | 4 | 1019.8 |
| 20260905141306 | 49 | 146 | 0.0 | 1.0 | 0.00 | 0.00 | 0.00 | 4 | 1020.0 |
| 20260905135805 | 49 | 156 | 1.0 | 1.0 | 0.00 | 0.00 | 0.00 | 4 | 1020.2 |
| 20260905135306 | 49 | 159 | 0.0 | 0.0 | 0.00 | 0.00 | 0.00 | 4 | 1020.2 |
| 20260905134805 | 49 | 159 | 0.0 | 1.0 | 0.00 | 0.00 | 0.00 | 4 | 1020.2 |
| 20260905134304 | 48 | 159 | 0.0 | 1.0 | 0.00 | 0.00 | 0.00 | 4 | 1020.3 |
| 20260905133805 | 48 | 159 | 1.0 | 1.0 | 0.00 | 0.00 | 0.00 | 4 | 1020.4 |
| 20260905133305 | 48 | 159 | 0.0 | 0.0 | 0.00 | 0.00 | 0.00 | 4 | 1020.4 |
| 20260905132804 | 48 | 159 | 0.0 | 0.0 | 0.00 | 0.00 | 0.00 | 4 | 1020.3 |
| 20260905132306 | 49 | 159 | 0.0 | 1.0 | 0.00 | 0.00 | 0.00 | 4 | 1020.5 |
| 20260905131304 | 49 | 159 | 0.0 | 1.0 | 0.00 | 0.00 | 0.00 | 4 | 1020.4 |
| 20260905130305 | 48 | 159 | 0.0 | 0.0 | 0.00 | 0.00 | 0.00 | 4 | 1020.4 |
| 20260905125805 | 48 | 159 | 0.0 | 0.0 | 0.00 | 0.00 | 0.00 | 4 | 1020.4 |
| 20260905124306 | 49 | 264 | 1.0 | 1.0 | 0.00 | 0.00 | 0.00 | 4 | 1020.4 |
| 20260905123805 | 49 | 264 | 1.0 | 1.0 | 0.00 | 0.00 | 0.00 | 4 | 1020.4 |
| 20260905121804 | 50 | 263 | 0.0 | 1.0 | 0.00 | 0.00 | 0.00 | 4 | 1020.4 |
| 20260905121304 | 50 | 264 | 0.0 | 1.0 | 0.00 | 0.00 | 0.00 | 4 | 1020.4 |
| 20260905120825 | 50 | 263 | 0.0 | 1.0 | 0.00 | 0.00 | 0.00 | 4 | 1020.4 |
| 20260905115805 | 50 | 263 | 1.0 | 2.0 | 0.00 | 0.00 | 0.00 | 4 | 1020.5 |
| 20260905114804 | 50 | 261 | 1.0 | 1.0 | 0.00 | 0.00 | 0.00 | 4 | 1020.7 |
| 20260905114307 | 50 | 243 | 0.0 | 1.0 | 0.00 | 0.00 | 0.00 | 4 | 1020.7 |
| 20260905113304 | 51 | 242 | 0.0 | 0.0 | 0.00 | 0.00 | 0.00 | 4 | 1020.7 |
| 20260905112804 | 51 | 242 | 0.0 | 0.0 | 0.00 | 0.00 | 0.00 | 4 | 1020.9 |
| 20260905111304 | 52 | 242 | 1.0 | 2.0 | 0.00 | 0.00 | 0.00 | 4 | 1020.9 |
| 20260905110804 | 52 | 247 | 2.0 | 3.0 | 0.00 | 0.00 | 0.00 | 4 | 1020.9 |
| 20260905110304 | 51 | 234 | 2.0 | 3.0 | 0.00 | 0.00 | 0.00 | 4 | 1020.9 |
| 20260905105807 | 50 | 236 | 1.0 | 2.0 | 0.00 | 0.00 | 0.00 | 4 | 1020.8 |
| 20260905104305 | 49 | 275 | 0.0 | 1.0 | 0.00 | 0.00 | 0.00 | 4 | 1020.9 |
| 20260905103807 | 49 | 275 | 0.0 | 0.0 | 0.00 | 0.00 | 0.00 | 4 | 1021.0 |
| 20260905102306 | 49 | 277 | 0.0 | 0.0 | 0.00 | 0.00 | 0.00 | 4 | 1020.8 |
| 20260905100805 | 50 | 275 | 0.0 | 0.0 | 0.00 | 0.00 | 0.00 | 4 | 1021.0 |
| 20260905095804 | 51 | 275 | 0.0 | 1.0 | 0.00 | 0.00 | 0.00 | 4 | 1020.9 |
| 20260905095306 | 51 | 275 | 0.0 | 1.0 | 0.00 | 0.00 | 0.00 | 4 | 1020.9 |
| 20260905093306 | 50 | 283 | 1.0 | 1.0 | 0.00 | 0.00 | 0.00 | 4 | 1020.9 |
| 20260905092807 | 50 | 283 | 0.0 | 0.0 | 0.00 | 0.00 | 0.00 | 4 | 1020.9 |
| 20260905092306 | 50 | 283 | 0.0 | 0.0 | 0.00 | 0.00 | 0.00 | 4 | 1020.9 |
| 20260905091804 | 50 | 285 | 0.0 | 0.0 | 0.00 | 0.00 | 0.00 | 9 | 1021.1 |
| 20260905090804 | 50 | 286 | 0.0 | 0.0 | 0.00 | 0.00 | 0.00 | 16 | 1021.3 |
| 20260905085805 | 51 | 286 | 0.0 | 0.0 | 0.00 | 0.00 | 0.00 | 18 | 1021.2 |
| 20260905084805 | 52 | 283 | 1.0 | 3.0 | 0.00 | 0.00 | 0.00 | 17 | 1021.1 |
| 20260905084307 | 52 | 248 | 1.0 | 3.0 | 0.00 | 0.00 | 0.00 | 17 | 1021.3 |
| 20260905083307 | 51 | 258 | 2.0 | 3.0 | 0.00 | 0.00 | 0.00 | 23 | 1021.0 |
| 20260905082804 | 51 | 249 | 2.0 | 3.0 | 0.00 | 0.00 | 0.00 | 24 | 1020.7 |
| 20260905081804 | 52 | 241 | 2.0 | 3.0 | 0.00 | 0.00 | 0.00 | 26 | 1020.3 |
| 20260905081304 | 52 | 241 | 2.0 | 3.0 | 0.00 | 0.00 | 0.00 | 26 | 1020.4 |
| 20260905075306 | 52 | 271 | 2.0 | 3.0 | 0.00 | 0.00 | 0.00 | 33 | 1020.0 |
| 20260905074804 | 52 | 265 | 1.0 | 2.0 | 0.00 | 0.00 | 0.00 | 35 | 1020.1 |
| 20260905074305 | 52 | 265 | 1.0 | 3.0 | 0.00 | 0.00 | 0.00 | 36 | 1020.0 |
| 20260905073305 | 52 | 246 | 2.0 | 3.0 | 0.00 | 0.00 | 0.00 | 39 | 1019.9 |
| 20260905072805 | 52 | 249 | 2.0 | 3.0 | 0.00 | 0.00 | 0.00 | 41 | 1019.6 |
| 20260905072306 | 53 | 249 | 2.0 | 2.0 | 0.00 | 0.00 | 0.00 | 42 | 1019.6 |
| 20260905071805 | 53 | 249 | 1.0 | 2.0 | 0.00 | 0.00 | 0.00 | 43 | 1019.6 |
| 20260905070305 | 53 | 257 | 0.0 | 0.0 | 0.00 | 0.00 | 0.00 | 50 | 1019.5 |
| 20260905065307 | 54 | 269 | 1.0 | 2.0 | 0.00 | 0.00 | 0.00 | 53 | 1019.5 |
| 20260905063805 | 55 | 260 | 1.0 | 2.0 | 0.00 | 0.00 | 0.00 | 58 | 1019.6 |
| 20260905063305 | 55 | 242 | 1.0 | 2.0 | 0.00 | 0.00 | 0.00 | 59 | 1019.7 |
| 20260905062306 | 56 | 247 | 2.0 | 5.0 | 0.00 | 0.00 | 0.00 | 62 | 1019.8 |
| 20260905061304 | 57 | 243 | 1.0 | 3.0 | 0.00 | 0.00 | 0.00 | 64 | 1019.8 |